• In Belgium
  • List of Countries
  • For 7 days
  • Water Temperature
  • Satellite Maps
  • Weather Map
  • Weather Widgets
  • user-avatar
    Login

    Hourly Weather Perth

    Today, 22 August, Tuesday

    Time Temperature Precipitation Wind Pressure Humidity
    00:00 +12°C° 0 mm 1 mps 764 mmHg 87%
    01:00 +11°C° 0 mm 1 mps 764 mmHg 87%
    02:00 +11°C° 0 mm 1 mps 763 mmHg 89%
    03:00 +11°C° 0 mm 1 mps 763 mmHg 89%
    04:00 +11°C° 0 mm 1 mps 764 mmHg 90%
    05:00 +10°C° 0 mm 1 mps 764 mmHg 90%
    06:00 +11°C° 0 mm 1 mps 764 mmHg 89%
    07:00 +11°C° 0 mm 1 mps 764 mmHg 87%
    08:00 +13°C° 0 mm 1 mps 764 mmHg 84%
    09:00 +15°C° 0 mm 1 mps 764 mmHg 75%
    10:00 +16°C° 0 mm 1 mps 764 mmHg 65%
    11:00 +19°C° 0 mm 1 mps 764 mmHg 56%
    12:00 +19°C° 0 mm 1 mps 764 mmHg 57%
    13:00 +18°C° 0 mm 2 mps 764 mmHg 57%
    14:00 +19°C° 0 mm 3 mps 764 mmHg 56%
    15:00 +18°C° 0 mm 3 mps 764 mmHg 60%
    16:00 +18°C° 0 mm 3 mps 764 mmHg 63%
    17:00 +18°C° 0 mm 3 mps 764 mmHg 67%
    18:00 +16°C° 0 mm 3 mps 765 mmHg 73%
    19:00 +14°C° 0 mm 3 mps 765 mmHg 79%
    20:00 +13°C° 0 mm 3 mps 766 mmHg 85%
    21:00 +12°C° 0 mm 3 mps 766 mmHg 87%
    22:00 +12°C° 0 mm 3 mps 766 mmHg 88%
    23:00 +12°C° 0 mm 3 mps 767 mmHg 90%

    Tomorrow, 23 August, Wednesday

    Time Temperature Precipitation Wind Pressure Humidity
    00:00 +11°C° 0 mm 3 mps 767 mmHg 90%
    01:00 +11°C° 0 mm 4 mps 767 mmHg 91%
    02:00 +10°C° 0 mm 4 mps 767 mmHg 92%
    03:00 +10°C° 0 mm 4 mps 767 mmHg 92%
    04:00 +10°C° 0 mm 4 mps 768 mmHg 92%
    05:00 +10°C° 0 mm 4 mps 768 mmHg 92%
    06:00 +10°C° 0 mm 4 mps 768 mmHg 90%
    07:00 +10°C° 0 mm 4 mps 768 mmHg 88%
    08:00 +10°C° 0 mm 5 mps 769 mmHg 86%
    09:00 +12°C° 0 mm 5 mps 769 mmHg 79%
    10:00 +14°C° 0 mm 4 mps 769 mmHg 73%
    11:00 +17°C° 0 mm 4 mps 769 mmHg 66%
    12:00 +17°C° 0 mm 4 mps 769 mmHg 64%
    13:00 +18°C° 0 mm 4 mps 768 mmHg 62%
    14:00 +19°C° 0 mm 4 mps 768 mmHg 59%
    15:00 +18°C° 0 mm 4 mps 768 mmHg 61%
    16:00 +18°C° 0 mm 4 mps 768 mmHg 63%
    17:00 +17°C° 0 mm 4 mps 768 mmHg 66%
    18:00 +15°C° 0 mm 4 mps 768 mmHg 70%
    19:00 +13°C° 0 mm 4 mps 768 mmHg 74%
    20:00 +12°C° 0 mm 4 mps 769 mmHg 78%
    21:00 +11°C° 0 mm 4 mps 769 mmHg 79%
    22:00 +11°C° 0 mm 4 mps 769 mmHg 80%
    23:00 +10°C° 0 mm 4 mps 769 mmHg 80%

    Day after tomorrow, 24 August, Thursday

    Time Temperature Precipitation Wind Pressure Humidity
    00:00 +10°C° 0 mm 4 mps 769 mmHg 80%
    01:00 +9°C° 0 mm 5 mps 769 mmHg 80%
    02:00 +9°C° 0 mm 5 mps 769 mmHg 79%
    03:00 +9°C° 0 mm 5 mps 768 mmHg 81%
    04:00 +8°C° 0 mm 5 mps 768 mmHg 82%
    05:00 +8°C° 0 mm 5 mps 768 mmHg 83%
    06:00 +9°C° 0 mm 5 mps 768 mmHg 82%
    07:00 +9°C° 0 mm 5 mps 769 mmHg 80%
    08:00 +9°C° 0 mm 5 mps 769 mmHg 79%
    09:00 +12°C° 0 mm 5 mps 769 mmHg 73%
    10:00 +15°C° 0 mm 5 mps 768 mmHg 68%
    11:00 +17°C° 0 mm 5 mps 768 mmHg 63%
    12:00 +19°C° 0 mm 4 mps 767 mmHg 60%
    13:00 +20°C° 0 mm 4 mps 766 mmHg 57%
    14:00 +21°C° 0 mm 3 mps 766 mmHg 54%
    15:00 +21°C° 0 mm 4 mps 766 mmHg 57%
    16:00 +20°C° 0 mm 4 mps 766 mmHg 60%
    17:00 +20°C° 0 mm 4 mps 766 mmHg 63%
    18:00 +18°C° 0 mm 4 mps 766 mmHg 67%
    19:00 +17°C° 0 mm 4 mps 766 mmHg 72%
    20:00 +14°C° 0 mm 5 mps 767 mmHg 76%
    21:00 +14°C° 0 mm 5 mps 767 mmHg 74%
    22:00 +14°C° 0 mm 5 mps 767 mmHg 72%
    23:00 +13°C° 0 mm 5 mps 767 mmHg 70%

    25 August, Friday

    Time Temperature Precipitation Wind Pressure Humidity
    00:00 +13°C° 0 mm 5 mps 767 mmHg 72%
    01:00 +12°C° 0 mm 5 mps 767 mmHg 73%
    02:00 +10°C° 0 mm 5 mps 766 mmHg 74%
    03:00 +10°C° 0 mm 5 mps 766 mmHg 76%
    04:00 +9°C° 0 mm 5 mps 766 mmHg 79%
    05:00 +10°C° 0 mm 4 mps 766 mmHg 81%
    06:00 +10°C° 0 mm 4 mps 767 mmHg 80%
    07:00 +10°C° 0 mm 4 mps 767 mmHg 78%
    08:00 +11°C° 0 mm 4 mps 767 mmHg 77%
    09:00 +13°C° 0 mm 4 mps 767 mmHg 71%
    10:00 +15°C° 0 mm 4 mps 767 mmHg 65%
    11:00 +19°C° 0 mm 3 mps 767 mmHg 58%
    12:00 +19°C° 0 mm 4 mps 766 mmHg 56%
    13:00 +20°C° 0 mm 4 mps 765 mmHg 54%
    14:00 +21°C° 0 mm 4 mps 765 mmHg 52%
    15:00 +20°C° 0 mm 4 mps 765 mmHg 57%
    16:00 +20°C° 0 mm 4 mps 765 mmHg 61%
    17:00 +19°C° 0 mm 4 mps 765 mmHg 65%
    18:00 +18°C° 0 mm 4 mps 765 mmHg 70%
    19:00 +15°C° 0 mm 4 mps 766 mmHg 74%
    20:00 +14°C° 0 mm 4 mps 767 mmHg 78%
    21:00 +13°C° 0 mm 4 mps 767 mmHg 79%
    22:00 +13°C° 0 mm 5 mps 767 mmHg 81%
    23:00 +12°C° 0 mm 5 mps 767 mmHg 82%

    26 August, Saturday

    Time Temperature Precipitation Wind Pressure Humidity
    00:00 +12°C° 0 mm 4 mps 767 mmHg 84%
    01:00 +11°C° 0 mm 4 mps 767 mmHg 86%
    02:00 +11°C° 0 mm 4 mps 766 mmHg 89%
    03:00 +11°C° 0 mm 4 mps 767 mmHg 89%
    04:00 +10°C° 0 mm 4 mps 767 mmHg 89%
    05:00 +10°C° 0 mm 4 mps 767 mmHg 90%
    06:00 +10°C° 0 mm 4 mps 767 mmHg 88%
    07:00 +11°C° 0 mm 4 mps 768 mmHg 86%
    08:00 +11°C° 0 mm 4 mps 768 mmHg 84%
    09:00 +13°C° 0 mm 4 mps 768 mmHg 77%
    10:00 +15°C° 0 mm 4 mps 768 mmHg 71%
    11:00 +18°C° 0 mm 4 mps 768 mmHg 64%
    12:00 +19°C° 0 mm 4 mps 767 mmHg 62%
    13:00 +19°C° 0 mm 4 mps 767 mmHg 61%
    14:00 +20°C° 0 mm 4 mps 766 mmHg 59%
    15:00 +19°C° 0.1 mm 4 mps 766 mmHg 62%
    16:00 +19°C° 0.1 mm 3 mps 766 mmHg 65%
    17:00 +18°C° 0.1 mm 3 mps 766 mmHg 67%
    18:00 +17°C° 0 mm 3 mps 767 mmHg 73%
    19:00 +14°C° 0 mm 4 mps 767 mmHg 78%
    20:00 +13°C° 0 mm 4 mps 768 mmHg 83%
    21:00 +13°C° 0 mm 4 mps 768 mmHg 83%
    22:00 +12°C° 0 mm 4 mps 768 mmHg 83%
    23:00 +12°C° 0 mm 4 mps 768 mmHg 83%

    27 August, Sunday

    Time Temperature Precipitation Wind Pressure Humidity
    00:00 +11°C° 0 mm 4 mps 768 mmHg 83%
    01:00 +11°C° 0 mm 4 mps 767 mmHg 83%
    02:00 +11°C° 0 mm 4 mps 767 mmHg 84%
    03:00 +10°C° 0 mm 5 mps 767 mmHg 84%
    04:00 +10°C° 0 mm 5 mps 767 mmHg 84%
    05:00 +10°C° 0 mm 5 mps 768 mmHg 84%
    06:00 +10°C° 0 mm 5 mps 768 mmHg 84%
    07:00 +10°C° 0 mm 5 mps 768 mmHg 83%
    08:00 +12°C° 0 mm 5 mps 768 mmHg 82%
    09:00 +14°C° 0 mm 5 mps 768 mmHg 74%
    10:00 +16°C° 0 mm 5 mps 768 mmHg 67%
    11:00 +19°C° 0 mm 5 mps 768 mmHg 59%
    12:00 +20°C° 0 mm 5 mps 767 mmHg 56%
    13:00 +20°C° 0 mm 5 mps 766 mmHg 54%
    14:00 +21°C° 0 mm 5 mps 765 mmHg 51%
    15:00 +20°C° 0 mm 5 mps 765 mmHg 54%
    16:00 +20°C° 0 mm 5 mps 765 mmHg 57%
    17:00 +19°C° 0 mm 4 mps 765 mmHg 61%
    18:00 +17°C° 0 mm 5 mps 766 mmHg 65%
    19:00 +16°C° 0 mm 5 mps 766 mmHg 69%
    20:00 +14°C° 0 mm 5 mps 766 mmHg 74%
    21:00 +14°C° 0 mm 5 mps 766 mmHg 74%
    22:00 +13°C° 0 mm 5 mps 766 mmHg 75%
    23:00 +13°C° 0 mm 5 mps 766 mmHg 76%
    Show more